Regional Weather Roundup
Issued by NWS

Home | Current Version | Previous Version | Graphics & Text | Print | Product List | Glossary On
Versions: 1 2 3 4 5 6 7 8 9 10 11 12 13 14 15 16 17 18 19 20 21 22 23 24 25 26 27 28 29 30 31 32 33 34 35 36 37 38 39 40 41 42 43 44 45 46 47 48 49 50
901
ASUS44 KMEG 261900
RWRTN
TENNESSEE HOURLY STATE WEATHER ROUNDUP
NATIONAL WEATHER SERVICE MEMPHIS TN
200 PM CDT SUN MAR 26 2017

TNZ002-004-019-021-049-052-054-088>092-262000-
WEST TENNESSEE

CITY           SKY/WX    TMP DP  RH WIND       PRES   REMARKS
MEMPHIS INTL   MOSUNNY   73  54  51 W13G20    29.96F
NWS MEMPHIS      N/A     72 N/A N/A MISG        N/A
JACKSON        CLOUDY    72  55  55 SW14G24   29.96F
DYERSBURG      MOSUNNY   68  53  58 SW12      29.96F
PARIS          PTSUNNY   64  54  68 W14       29.95F
$$

TNZ008-025-027-028-033-062-065-066-262000-
NORTH MIDDLE TENNESSEE

CITY           SKY/WX    TMP DP  RH WIND       PRES   REMARKS
NASHVILLE      PTSUNNY   71  55  56 S21G26    29.98F
CLARKSVILLE    CLOUDY    69  54  58 SW14      29.94F
SMYRNA         PTSUNNY   71  57  61 S16       29.99F
CROSSVILLE     PTSUNNY   63  56  78 S9G23     30.03F
$$

TNZ061-075-076-078-094-096-097-262000-
SOUTH MIDDLE TENNESSEE

CITY           SKY/WX    TMP DP  RH WIND       PRES   REMARKS
TULLAHOMA      PTSUNNY   64  61  88 SW15      30.03F
WINCHESTER     PTSUNNY   68  59  73 SW14      30.03F
COLUMBIA       PTSUNNY   70  61  73 SW15      29.97F
SHELBYVILLE    PTSUNNY   70  61  73 SW13      30.02F
$$

TNZ017-018-042-046-047-262000-
NORTHEAST TENNESSEE

CITY           SKY/WX    TMP DP  RH WIND       PRES   REMARKS
TRI CITIES     PTSUNNY   73  51  46 S13       30.03F
$$

TNZ012-013-036-069-073-074-262000-
CENTRAL EAST TENNESSEE

CITY           SKY/WX    TMP DP  RH WIND       PRES   REMARKS
KNOXVILLE      MOSUNNY   70  58  65 SW16      30.02F
OAK RIDGE      CLOUDY    66  60  81 VRB5      30.04F
GATLINBURG     MOSUNNY   73  48  40 SW15      30.01S
$$

TNZ083-085-099-262000-
SOUTHEAST TENNESSEE

CITY           SKY/WX    TMP DP  RH WIND       PRES   REMARKS
CHATTANOOGA    PTSUNNY   73  57  57 S16G28    30.04F
$$

SKY/WX REPORTED AS FAIR MEANS FEW OR NO CLOUDS BELOW
12 THOUSAND FEET.





USA.gov is the U.S. government's official web portal to all federal, state and local government web resources and services.